STARLINK-2281 (48015 NORAD) Tracking and Keplerian Element Data

This shows tracking and keplerian element data for the satellite.

Feedback or suggestion? Click here.




ElementValue
Catalog48015
NameSTARLINK-2281
Epoch Orbit198
Epoch Day173.91668981
Epoch Year2021
RAAN114.2734
Inclination53.0448
Eccentricity0.0002389
Argument of Perigee23.9192
Mean Anonmoly135.7104
Mean Motion15.72979256
Decay Rate0.00394264
L11 48015U 21024AQ 21173.91668981 .00394264 00000-0 27087-2 0 9993
L22 48015 53.0448 114.2734 0002389 23.9192 135.7104 15.72979256 1986

Live tracking and technical data element details for STARLINK-2281 (NORAD 48015). STARLINK-2281 can be tracked NOW for your location showing map with azimuth and elevation plus other details from your city location.

Track the satellite on the map from your city or location and see movement details for azimuth, elevation, latitude, longitude, range, height, and movement on the map or in text.







IsCatalogInMostPopularTable: catalog: 48015, numindb: 40
Update: records affected: 1



GetName: 48015 STARLINK-2281

Hit Count: updated at: Thu, 24 Jun 2021 03:47:55 GMT